| time (UTC) | temp F | wind direction | speed knots | gust knots | rain 1hr in | rain 24hr in | rain mn in | humidity % | barometer mb |
| 20260503225844 | 57 | 300 | 3.5 | 5.2 | 0.00 | 0.00 | 0.00 | 35 | 1016.6 |
| 20260503225339 | 57 | 145 | 0.9 | 2.6 | 0.00 | 0.00 | 0.00 | 34 | 1016.7 |
| 20260503224836 | 57 | 304 | 2.6 | 3.5 | 0.00 | 0.00 | 0.00 | 34 | 1016.6 |
| 20260503224333 | 57 | 72 | 1.7 | 2.6 | 0.00 | 0.00 | 0.00 | 36 | 1016.7 |
| 20260503223831 | 56 | 71 | 0.9 | 6.1 | 0.00 | 0.00 | 0.00 | 36 | 1016.6 |
| 20260503223328 | 58 | 136 | 2.6 | 3.5 | 0.00 | 0.00 | 0.00 | 31 | 1016.7 |
| 20260503222824 | 57 | 304 | 3.5 | 5.2 | 0.00 | 0.00 | 0.00 | 31 | 1016.6 |
| 20260503222323 | 57 | 280 | 5.2 | 7.8 | 0.00 | 0.00 | 0.00 | 29 | 1016.7 |
| 20260503221820 | 58 | 41 | 1.7 | 5.2 | 0.00 | 0.00 | 0.00 | 33 | 1016.6 |
| 20260503221319 | 58 | 181 | 2.6 | 6.1 | 0.00 | 0.00 | 0.00 | 29 | 1016.5 |
| 20260503220814 | 58 | 276 | 2.6 | 3.5 | 0.00 | 0.00 | 0.00 | 33 | 1016.7 |
| 20260503220312 | 56 | 253 | 0.0 | 6.1 | 0.00 | 0.00 | 0.00 | 30 | 1016.6 |
| 20260503215808 | 58 | 291 | 3.5 | 6.1 | 0.00 | 0.00 | 0.00 | 34 | 1016.4 |
| 20260503215305 | 58 | 296 | 1.7 | 2.6 | 0.00 | 0.00 | 0.00 | 35 | 1016.4 |
| 20260503214803 | 57 | 56 | 0.9 | 3.5 | 0.00 | 0.00 | 0.00 | 33 | 1016.6 |
| 20260503214300 | 57 | 244 | 2.6 | 5.2 | 0.00 | 0.00 | 0.00 | 34 | 1016.4 |
| 20260503213758 | 57 | 252 | 1.7 | 3.5 | 0.00 | 0.00 | 0.00 | 34 | 1016.4 |
| 20260503213255 | 57 | 226 | 0.0 | 5.2 | 0.00 | 0.00 | 0.00 | 31 | 1016.4 |
| 20260503212752 | 57 | 305 | 1.7 | 3.5 | 0.00 | 0.00 | 0.00 | 29 | 1016.6 |
| 20260503212249 | 57 | 49 | 2.6 | 8.7 | 0.00 | 0.00 | 0.00 | 31 | 1016.6 |
| 20260503211747 | 57 | 321 | 2.6 | 2.6 | 0.00 | 0.00 | 0.00 | 30 | 1016.5 |
| 20260503211243 | 58 | 306 | 3.5 | 6.1 | 0.00 | 0.00 | 0.00 | 31 | 1016.6 |
| 20260503210738 | 56 | 268 | 1.7 | 5.2 | 0.00 | 0.00 | 0.00 | 32 | 1016.7 |
| 20260503210236 | 57 | 273 | 5.2 | 7.8 | 0.00 | 0.00 | 0.00 | 32 | 1016.7 |
| 20260503205731 | 58 | 322 | 3.5 | 5.2 | 0.00 | 0.00 | 0.00 | 33 | 1016.7 |
| 20260503205228 | 58 | 308 | 3.5 | 5.2 | 0.00 | 0.00 | 0.00 | 32 | 1016.9 |
| 20260503204724 | 56 | 305 | 0.9 | 2.6 | 0.00 | 0.00 | 0.00 | 36 | 1016.9 |
| 20260503204222 | 56 | 301 | 0.9 | 7.0 | 0.00 | 0.00 | 0.00 | 28 | 1016.9 |
| 20260503203719 | 58 | 121 | 3.5 | 7.0 | 0.00 | 0.00 | 0.00 | 29 | 1016.9 |
| 20260503203217 | 57 | 32 | 0.9 | 6.1 | 0.00 | 0.00 | 0.00 | 28 | 1017.1 |
| 20260503202714 | 57 | 273 | 1.7 | 1.7 | 0.00 | 0.00 | 0.00 | 32 | 1017.1 |
| 20260503202212 | 56 | 281 | 0.9 | 6.1 | 0.00 | 0.00 | 0.00 | 30 | 1017.1 |
| 20260503201709 | 56 | 327 | 4.3 | 7.0 | 0.00 | 0.00 | 0.00 | 27 | 1017.4 |
| 20260503201207 | 56 | 285 | 6.1 | 7.0 | 0.00 | 0.00 | 0.00 | 34 | 1017.5 |
| 20260503200702 | 57 | 86 | 1.7 | 6.1 | 0.00 | 0.00 | 0.00 | 33 | 1017.3 |
| 20260503200159 | 56 | 314 | 0.9 | 5.2 | 0.00 | 0.00 | 0.00 | 31 | 1017.4 |
| 20260503195656 | 55 | 304 | 1.7 | 6.1 | 0.00 | 0.00 | 0.00 | 33 | 1017.6 |
| 20260503195153 | 57 | 277 | 1.7 | 5.2 | 0.00 | 0.00 | 0.00 | 35 | 1017.9 |
| 20260503194650 | 56 | 42 | 2.6 | 5.2 | 0.00 | 0.00 | 0.00 | 33 | 1017.8 |
| 20260503194145 | 56 | 326 | 0.9 | 3.5 | 0.00 | 0.00 | 0.00 | 30 | 1017.9 |
| 20260503193642 | 56 | 322 | 8.7 | 9.6 | 0.00 | 0.00 | 0.00 | 35 | 1018.0 |
| 20260503193138 | 56 | 309 | 0.9 | 7.8 | 0.00 | 0.00 | 0.00 | 32 | 1017.7 |
| 20260503192634 | 55 | 302 | 1.7 | 5.2 | 0.00 | 0.00 | 0.00 | 32 | 1018.0 |
| 20260503192129 | 56 | 300 | 1.7 | 3.5 | 0.00 | 0.00 | 0.00 | 32 | 1018.2 |
| 20260503191626 | 56 | 310 | 4.3 | 6.1 | 0.00 | 0.00 | 0.00 | 34 | 1018.4 |
| 20260503191124 | 56 | 357 | 0.9 | 11.3 | 0.00 | 0.00 | 0.00 | 33 | 1018.0 |
| 20260503190620 | 55 | 48 | 4.3 | 8.7 | 0.00 | 0.00 | 0.00 | 36 | 1018.0 |
| 20260503190117 | 56 | 316 | 1.7 | 3.5 | 0.00 | 0.00 | 0.00 | 33 | 1018.0 |
| 20260503185614 | 54 | 335 | 2.6 | 5.2 | 0.00 | 0.00 | 0.00 | 31 | 1018.1 |
| 20260503185114 | 55 | 262 | 0.9 | 7.0 | 0.00 | 0.00 | 0.00 | 33 | 1018.2 |
| 20260503184609 | 54 | 306 | 5.2 | 7.8 | 0.00 | 0.00 | 0.00 | 36 | 1018.1 |
| 20260503184106 | 54 | 246 | 2.6 | 7.8 | 0.00 | 0.00 | 0.00 | 34 | 1018.2 |
| 20260503183603 | 54 | 313 | 1.7 | 2.6 | 0.00 | 0.00 | 0.00 | 31 | 1018.6 |
| 20260503183100 | 55 | 77 | 2.6 | 3.5 | 0.00 | 0.00 | 0.00 | 36 | 1018.5 |
| 20260503182558 | 54 | 300 | 0.9 | 6.1 | 0.00 | 0.00 | 0.00 | 29 | 1018.6 |
| 20260503182056 | 53 | 74 | 0.9 | 7.8 | 0.00 | 0.00 | 0.00 | 33 | 1018.6 |
| 20260503181553 | 53 | 160 | 0.0 | 6.1 | 0.00 | 0.00 | 0.00 | 34 | 1018.8 |
| 20260503181049 | 52 | 137 | 0.9 | 7.0 | 0.00 | 0.00 | 0.00 | 33 | 1019.0 |
| 20260503180547 | 53 | 294 | 4.3 | 9.6 | 0.00 | 0.00 | 0.00 | 34 | 1019.1 |
| 20260503180044 | 53 | 33 | 4.3 | 7.0 | 0.00 | 0.00 | 0.00 | 37 | 1019.2 |
| 20260503175541 | 52 | 45 | 3.5 | 6.1 | 0.00 | 0.00 | 0.00 | 40 | 1019.2 |
| 20260503175038 | 51 | 51 | 0.9 | 7.0 | 0.00 | 0.00 | 0.00 | 35 | 1018.9 |
| 20260503174536 | 51 | 283 | 0.0 | 2.6 | 0.00 | 0.00 | 0.00 | 33 | 1019.2 |
| 20260503174032 | 52 | 288 | 5.2 | 7.0 | 0.00 | 0.00 | 0.00 | 34 | 1019.2 |
| 20260503173527 | 53 | 149 | 2.6 | 3.5 | 0.00 | 0.00 | 0.00 | 34 | 1019.0 |
| 20260503173023 | 52 | 310 | 4.3 | 7.8 | 0.00 | 0.00 | 0.00 | 35 | 1019.1 |
| 20260503172521 | 50 | 239 | 0.9 | 5.2 | 0.00 | 0.00 | 0.00 | 38 | 1019.2 |
| 20260503172018 | 51 | 280 | 2.6 | 5.2 | 0.00 | 0.00 | 0.00 | 34 | 1019.4 |
| 20260503171514 | 51 | 313 | 4.3 | 7.0 | 0.00 | 0.00 | 0.00 | 39 | 1019.2 |
| 20260503171012 | 51 | 68 | 2.6 | 5.2 | 0.00 | 0.00 | 0.00 | 38 | 1019.4 |
| 20260503170508 | 50 | 134 | 1.7 | 6.1 | 0.00 | 0.00 | 0.00 | 35 | 1019.4 |
| 20260503150900 | 46 | 284 | 3.5 | 3.5 | 0.00 | 0.00 | 0.00 | 43 | 1020.4 |
| 20260503150356 | 47 | 309 | 3.5 | 7.0 | 0.00 | 0.00 | 0.00 | 39 | 1020.4 |
| 20260503131250 | 40 | 94 | 0.9 | 1.7 | 0.00 | 0.00 | 0.00 | 60 | 1019.8 |
| 20260503130748 | 42 | 53 | 3.5 | 6.1 | 0.00 | 0.00 | 0.00 | 59 | 1019.8 |
| 20260503130245 | 40 | 147 | 0.0 | 1.7 | 0.00 | 0.00 | 0.00 | 61 | 1020.2 |
| 20260503120211 | 32 | 144 | 1.7 | 2.6 | 0.00 | 0.00 | 0.00 | 82 | 1019.8 |
| 20260503110638 | 30 | 68 | 0.0 | 1.7 | 0.00 | 0.00 | 0.00 | 90 | 1018.9 |
| 20260503110136 | 30 | 104 | 0.9 | 0.9 | 0.00 | 0.00 | 0.00 | 92 | 1018.9 |
| 20260503081452 | 34 | 143 | 0.0 | 0.9 | 0.00 | 0.00 | 0.00 | 81 | 1017.7 |
| 20260503080949 | 34 | 143 | 0.0 | 0.0 | 0.00 | 0.00 | 0.00 | 82 | 1017.5 |
| 20260503080445 | 35 | 143 | 0.0 | 0.0 | 0.00 | 0.00 | 0.00 | 78 | 1017.6 |
| 20260503072921 | 35 | 114 | 0.9 | 1.7 | 0.00 | 0.00 | 0.00 | 76 | 1017.3 |
| 20260503072419 | 35 | 124 | 0.9 | 1.7 | 0.00 | 0.00 | 0.00 | 75 | 1017.2 |
| 20260503071916 | 35 | 129 | 1.7 | 2.6 | 0.00 | 0.00 | 0.00 | 76 | 1017.2 |
| 20260503071413 | 36 | 302 | 0.9 | 0.9 | 0.00 | 0.00 | 0.00 | 74 | 1016.9 |
| 20260503070909 | 36 | 284 | 3.5 | 3.5 | 0.00 | 0.00 | 0.00 | 73 | 1017.0 |
| 20260503070406 | 36 | 224 | 1.7 | 1.7 | 0.00 | 0.00 | 0.00 | 72 | 1017.0 |
| 20260503060332 | 37 | 91 | 0.9 | 1.7 | 0.00 | 0.00 | 0.00 | 74 | 1017.0 |
| 20260503054820 | 37 | 71 | 2.6 | 2.6 | 0.00 | 0.00 | 0.00 | 76 | 1017.0 |
| 20260503054316 | 37 | 103 | 0.9 | 1.7 | 0.00 | 0.00 | 0.00 | 76 | 1016.9 |
| 20260503053814 | 37 | 22 | 0.0 | 1.7 | 0.00 | 0.00 | 0.00 | 76 | 1016.9 |
| 20260503053312 | 37 | 335 | 0.9 | 0.9 | 0.00 | 0.00 | 0.00 | 76 | 1016.9 |
| 20260503052808 | 37 | 87 | 0.9 | 1.7 | 0.00 | 0.00 | 0.00 | 76 | 1016.9 |
| 20260503052306 | 37 | 70 | 1.7 | 1.7 | 0.00 | 0.00 | 0.00 | 77 | 1017.0 |
| 20260503051800 | 37 | 103 | 0.0 | 5.2 | 0.00 | 0.00 | 0.00 | 76 | 1016.9 |
| 20260503051257 | 37 | 6 | 0.0 | 1.7 | 0.00 | 0.00 | 0.00 | 77 | 1017.0 |
| 20260503050754 | 37 | 31 | 0.9 | 0.9 | 0.00 | 0.00 | 0.00 | 77 | 1017.0 |
| 20260503050250 | 37 | 98 | 0.0 | 1.7 | 0.00 | 0.00 | 0.00 | 76 | 1016.7 |
| 20260503045748 | 37 | 117 | 0.0 | 0.0 | 0.00 | 0.00 | 0.00 | 77 | 1016.7 |
| 20260503045246 | 37 | 103 | 0.9 | 1.7 | 0.00 | 0.00 | 0.00 | 76 | 1017.0 |
| 20260503044741 | 37 | 103 | 0.9 | 0.9 | 0.00 | 0.00 | 0.00 | 76 | 1016.6 |
| 20260503044239 | 37 | 73 | 0.9 | 0.9 | 0.00 | 0.00 | 0.00 | 76 | 1016.9 |
| 20260503043736 | 38 | 73 | 0.0 | 0.0 | 0.00 | 0.00 | 0.00 | 75 | 1016.9 |
| 20260503043233 | 38 | 99 | 0.9 | 1.7 | 0.00 | 0.00 | 0.00 | 74 | 1016.9 |
| 20260503042729 | 38 | 318 | 0.9 | 5.2 | 0.00 | 0.00 | 0.00 | 72 | 1016.7 |
| 20260503042226 | 38 | 299 | 0.0 | 0.0 | 0.00 | 0.00 | 0.00 | 74 | 1017.0 |
| 20260503041722 | 39 | 269 | 0.9 | 1.7 | 0.00 | 0.00 | 0.00 | 73 | 1016.9 |
| 20260503041220 | 39 | 289 | 0.9 | 1.7 | 0.00 | 0.00 | 0.00 | 73 | 1016.7 |
| 20260503040717 | 39 | 284 | 0.0 | 0.9 | 0.00 | 0.00 | 0.00 | 74 | 1017.0 |
| 20260503040215 | 39 | 46 | 0.9 | 0.9 | 0.00 | 0.00 | 0.00 | 72 | 1016.9 |
| 20260503035711 | 39 | 41 | 0.0 | 2.6 | 0.00 | 0.00 | 0.00 | 72 | 1017.0 |
| 20260503035209 | 39 | 239 | 0.9 | 2.6 | 0.00 | 0.00 | 0.00 | 71 | 1016.7 |
| 20260503034706 | 40 | 313 | 0.0 | 0.9 | 0.00 | 0.00 | 0.00 | 70 | 1016.9 |
| 20260503034203 | 39 | 216 | 0.0 | 0.9 | 0.00 | 0.00 | 0.00 | 71 | 1016.9 |
| 20260503033700 | 40 | 214 | 0.0 | 0.9 | 0.00 | 0.00 | 0.00 | 72 | 1016.9 |
| 20260503033158 | 40 | 224 | 0.0 | 0.9 | 0.00 | 0.00 | 0.00 | 70 | 1017.0 |
| 20260503032655 | 40 | 335 | 0.0 | 0.0 | 0.00 | 0.00 | 0.00 | 69 | 1016.7 |
| 20260503032154 | 40 | 48 | 0.9 | 1.7 | 0.00 | 0.00 | 0.00 | 69 | 1016.6 |
| 20260503031651 | 40 | 298 | 1.7 | 1.7 | 0.00 | 0.00 | 0.00 | 68 | 1016.6 |
| 20260503031149 | 40 | 288 | 0.9 | 1.7 | 0.00 | 0.00 | 0.00 | 68 | 1016.9 |
| 20260503030644 | 40 | 116 | 0.9 | 0.9 | 0.00 | 0.00 | 0.00 | 70 | 1017.0 |
| 20260503030141 | 40 | 110 | 0.0 | 0.9 | 0.00 | 0.00 | 0.00 | 69 | 1016.9 |
| 20260503025638 | 41 | 329 | 0.9 | 0.9 | 0.00 | 0.00 | 0.00 | 68 | 1017.1 |
| 20260503025136 | 41 | 354 | 0.0 | 0.9 | 0.00 | 0.00 | 0.00 | 68 | 1017.0 |
| 20260503024632 | 41 | 94 | 0.9 | 1.7 | 0.00 | 0.00 | 0.00 | 67 | 1016.9 |
| 20260503024130 | 41 | 356 | 0.0 | 0.0 | 0.00 | 0.00 | 0.00 | 66 | 1016.9 |
| 20260503023627 | 41 | 356 | 0.0 | 0.9 | 0.00 | 0.00 | 0.00 | 65 | 1016.9 |
| 20260503023124 | 41 | 113 | 0.0 | 0.0 | 0.00 | 0.00 | 0.00 | 65 | 1016.9 |
| 20260503022619 | 41 | 119 | 0.0 | 0.0 | 0.00 | 0.00 | 0.00 | 63 | 1016.7 |
| 20260503022114 | 41 | 104 | 0.9 | 0.9 | 0.00 | 0.00 | 0.00 | 65 | 1016.7 |
| 20260503021611 | 41 | 102 | 0.9 | 1.7 | 0.00 | 0.00 | 0.00 | 65 | 1016.9 |
| 20260503021108 | 41 | 100 | 0.9 | 1.7 | 0.00 | 0.00 | 0.00 | 61 | 1016.9 |
| 20260503020605 | 41 | 41 | 1.7 | 3.5 | 0.00 | 0.00 | 0.00 | 62 | 1016.7 |
| 20260503015559 | 41 | 12 | 0.0 | 0.9 | 0.00 | 0.00 | 0.00 | 61 | 1016.7 |
| 20260503015056 | 42 | 263 | 0.9 | 0.9 | 0.00 | 0.00 | 0.00 | 60 | 1016.4 |
| 20260503014552 | 42 | 315 | 0.0 | 1.7 | 0.00 | 0.00 | 0.00 | 57 | 1016.6 |
| 20260503014050 | 42 | 65 | 0.9 | 2.6 | 0.00 | 0.00 | 0.00 | 58 | 1016.5 |
| 20260503013547 | 42 | 305 | 1.7 | 3.5 | 0.00 | 0.00 | 0.00 | 59 | 1016.4 |
| 20260503013045 | 41 | 136 | 0.0 | 1.7 | 0.00 | 0.00 | 0.00 | 65 | 1016.5 |
| 20260503012542 | 42 | 324 | 0.9 | 3.5 | 0.00 | 0.00 | 0.00 | 64 | 1016.3 |
| 20260503012038 | 41 | 100 | 0.0 | 1.7 | 0.00 | 0.00 | 0.00 | 64 | 1016.3 |
| 20260503011535 | 41 | 125 | 0.9 | 1.7 | 0.00 | 0.00 | 0.00 | 66 | 1016.1 |
| 20260503011032 | 41 | 137 | 0.9 | 0.9 | 0.00 | 0.00 | 0.00 | 61 | 1015.9 |
| 20260503010528 | 41 | 139 | 0.0 | 0.9 | 0.00 | 0.00 | 0.00 | 62 | 1016.1 |
| 20260503010026 | 41 | 136 | 1.7 | 1.7 | 0.00 | 0.00 | 0.00 | 59 | 1016.1 |
| 20260503005523 | 41 | 123 | 0.9 | 1.7 | 0.00 | 0.00 | 0.00 | 61 | 1015.8 |
| 20260503005020 | 41 | 140 | 0.0 | 0.9 | 0.00 | 0.00 | 0.00 | 61 | 1016.0 |
| 20260503004516 | 42 | 140 | 0.9 | 1.7 | 0.00 | 0.00 | 0.00 | 59 | 1015.7 |
| 20260503004015 | 42 | 140 | 0.9 | 1.7 | 0.00 | 0.00 | 0.00 | 62 | 1015.6 |
| 20260503003511 | 42 | 140 | 0.9 | 1.7 | 0.00 | 0.00 | 0.00 | 59 | 1015.8 |
| 20260503003008 | 42 | 212 | 0.9 | 1.7 | 0.00 | 0.00 | 0.00 | 59 | 1015.6 |
| 20260503002505 | 42 | 129 | 0.9 | 1.7 | 0.00 | 0.00 | 0.00 | 60 | 1015.7 |
| 20260503002001 | 42 | 187 | 0.9 | 1.7 | 0.00 | 0.00 | 0.00 | 57 | 1015.5 |
| 20260503001458 | 42 | 120 | 0.9 | 1.7 | 0.00 | 0.00 | 0.00 | 63 | 1015.6 |
| 20260503000956 | 43 | 94 | 0.9 | 0.9 | 0.00 | 0.00 | 0.00 | 57 | 1015.8 |
| 20260503000453 | 43 | 54 | 0.0 | 0.0 | 0.00 | 0.00 | 0.00 | 56 | 1015.6 |
| 20260502235950 | 44 | 288 | 0.9 | 1.7 | 0.00 | 0.00 | 0.00 | 54 | 1015.5 |
| 20260502235446 | 44 | 129 | 1.7 | 2.6 | 0.00 | 0.00 | 0.00 | 55 | 1015.6 |
| 20260502234944 | 44 | 278 | 0.0 | 1.7 | 0.00 | 0.00 | 0.00 | 55 | 1015.7 |
| 20260502234440 | 44 | 297 | 3.5 | 6.1 | 0.00 | 0.00 | 0.00 | 53 | 1015.6 |
| 20260502233938 | 44 | 52 | 3.5 | 7.0 | 0.00 | 0.00 | 0.00 | 53 | 1015.6 |
| 20260502233433 | 45 | 1 | 0.9 | 2.6 | 0.00 | 0.00 | 0.00 | 52 | 1015.6 |
| 20260502232930 | 44 | 77 | 0.9 | 2.6 | 0.00 | 0.00 | 0.00 | 55 | 1015.4 |
| 20260502232427 | 44 | 303 | 0.0 | 1.7 | 0.00 | 0.00 | 0.00 | 51 | 1015.4 |
| 20260502231924 | 44 | 290 | 1.7 | 1.7 | 0.00 | 0.00 | 0.00 | 54 | 1015.4 |
| 20260502231421 | 45 | 312 | 1.7 | 3.5 | 0.00 | 0.00 | 0.00 | 51 | 1015.3 |
| 20260502230919 | 45 | 323 | 1.7 | 2.6 | 0.00 | 0.00 | 0.00 | 51 | 1015.3 |
| 20260502230417 | 45 | 324 | 1.7 | 2.6 | 0.00 | 0.00 | 0.00 | 50 | 1015.3 |